Regional Weather Roundup
Issued by NWS Goodland, KS

Home | Current Version | Previous Version | Text Only | Print | Product List | Glossary Off
Versions: 1 2 3 4 5 6 7 8 9 10 11 12 13 14 15 16 17 18 19 20 21 22 23 24 25 26 27 28 29 30 31 32 33 34 35 36 37 38 39 40 41 42 43 44 45 46 47 48 49 50

000
ASUS43 KGLD 280808
RWRGLD

GOODLAND FORECAST AREA HOURLY WEATHER ROUNDUP
NATIONAL WEATHER SERVICE GOODLAND KS
200 AM MDT THU JUL 28 2016

...OFFICIAL OBSERVATIONS...

CITY           SKY/WX    TMP DP  RH WIND       PRES   REMARKS
GOODLAND KS    CLEAR     61  58  90 E7        30.14F
HILL CITY KS   CLOUDY    71  68  90 S5        30.06F
IMPERIAL NEB   TSTM      67  60  78 NW26G36   30.21R
MCCOOK NEB     CLOUDY    70  67  90 NE3       30.11S
AKRON CO       PTCLDY    64  60  87 E9        30.18F
BURLINGTON CO  CLEAR     62  58  86 W7        30.16F
LIMON CO       CLOUDY    60  56  86 S5        30.22F
$$

...UNOFFICIAL OBSERVATIONS...

CITY           SKY/WX    TMP DP  RH WIND       PRES   REMARKS
COLBY KS       LGT RAIN  68  68 100 SE8       30.13S
LENORA KS        N/A     71  32  23 MISG        N/A
NORTON KS      PTCLDY    70  63  78 NW6       30.06F
KIT CARSON CO    N/A     61  55  82 CALM        N/A
YUMA CO          N/A     64  60  86 E14G26      N/A
$$




USA.gov is the U.S. government's official web portal to all federal, state and local government web resources and services.